Aeroporto :
LOGIN :

Iscrizione | Disclaimer

   EN    FR    IT 

 










Sommario :    VFR   VFR Marginale   IFR   IFR Intensivo   IFR Molto Intensivo
Visibilità : 
Base nubi : 
>= 8 km
>= 3000ft
5 / 8 km
1000 / 3000 ft
1500m / 5 km
500 / 1000 ft
800 / 1500m
200 / 500 ft
< 800m
< 200 ft
Simboli :   Temporali  Nebbia  Neve Forte  Precipitazioni Forti  Vento > 20 kt
SIGMETs :   Varie  Temporali  Ghiacco  Turbolenza  Onda orograficha  Ceneri Vulcaniche






- Altitudine del aeroporto : 1516 ft
- Codice IATA : AGB


EDMA - Augsburg

ULTIMO METAR :
  • 220250Z AUTO 26011KT 9999 OVC014/// 00/M02 Q1029

METARs OBSOLETI :
  • 220220Z AUTO 25012KT 9999 OVC016/// 00/M02 Q1029
  • 220150Z AUTO 25010KT 9999 FEW016/// SCT018/// OVC029/// M00/M02 Q1029
  • 220120Z AUTO 24012KT 9999 FEW020/// BKN027/// OVC031/// M00/M02 Q1029
  • 220050Z AUTO 25010KT 9999 FEW015/// OVC029/// M00/M02 Q1030
  • 220020Z AUTO 25010KT 9999 SCT015/// BKN031/// OVC040/// M00/M02 Q1030

Previsioni scadute.



MetMap, La meteo Aeronautica in un colpo d'occhio ! - Copyright ORBIFLY Dicembre 2007 - Disclaimer

ORBIFLY MET'MAP TEAM :

Programmazione e sviluppo : Alexandra Zaïnal
Concezione : Baudouin d'Aumeries
Aiuto per la programmazione : Marc-Olivier Méhu
Supporto tecnico e logistico : Manuel Goepfert
Aiuto per la traduzione : Arnaldo La Scala

Contatto : metmap@orbifly.com




FONTI E CREDITI :

   NOAA